DLH1110 EDDF-LPPR

Flight info

Callsign DLH1110
Flight time N/A
Altitude 36000
Route SOBRA2L/18 SOBRA Y180 DIK UN857 TOLVU DCT RAPOR DCT ESTOC DCT PON DCT DITAL DCT GODIX DCT DIDAK DCT KURIS DCT TERPO DCT ERIGA DCT AZFIC DCT LOTEE DCT MEGAT
Aircraft A320/M-SDE3FGHIRWY/LB1

Departure

Time N/A
Airport Frankfurt Main Airport (EDDF)

Arrival

Time 2026-05-06 17:12
Airport Francisco de Sá Carneiro Airport (LPPR)
Time Latitude Longitude Altitude Speed Heading
2026-05-06 16:39 43.34696 -7.77209 36013 ft 467 kts 223°
2026-05-06 16:40 43.29713 -7.82953 36010 ft 468 kts 223°
2026-05-06 16:40 43.25283 -7.88047 36015 ft 467 kts 223°
2026-05-06 16:41 43.21136 -7.92808 36010 ft 467 kts 223°
2026-05-06 16:41 43.15667 -7.99045 36007 ft 468 kts 220°
2026-05-06 16:41 43.12902 -8.01383 36013 ft 473 kts 208°
2026-05-06 16:42 43.09788 -8.02929 36012 ft 479 kts 197°
2026-05-06 16:42 43.06441 -8.03595 36008 ft 485 kts 186°
2026-05-06 16:42 43.03289 -8.03699 36005 ft 486 kts 183°
2026-05-06 16:43 42.96538 -8.03733 36002 ft 486 kts 184°
2026-05-06 16:43 42.89784 -8.03914 35990 ft 483 kts 185°
2026-05-06 16:43 42.86463 -8.04034 35800 ft 471 kts 185°
2026-05-06 16:44 42.84306 -8.04116 35631 ft 463 kts 185°
2026-05-06 16:44 42.81110 -8.04240 35385 ft 455 kts 185°
2026-05-06 16:44 42.76889 -8.04412 35061 ft 461 kts 185°
2026-05-06 16:44 42.73671 -8.04543 34813 ft 464 kts 185°
2026-05-06 16:45 42.70448 -8.04671 34480 ft 463 kts 186°
2026-05-06 16:45 42.68311 -8.04755 34055 ft 465 kts 186°
2026-05-06 16:45 42.65062 -8.04883 33115 ft 469 kts 186°
2026-05-06 16:45 42.61782 -8.05012 32218 ft 471 kts 186°
2026-05-06 16:46 42.58517 -8.05138 31651 ft 466 kts 186°
2026-05-06 16:46 42.55315 -8.05261 31046 ft 462 kts 186°
2026-05-06 16:46 42.52111 -8.05384 30485 ft 458 kts 186°
2026-05-06 16:46 42.48930 -8.05508 29943 ft 456 kts 186°
2026-05-06 16:47 42.45827 -8.05630 29366 ft 451 kts 186°
2026-05-06 16:47 42.42650 -8.05753 28827 ft 444 kts 186°
2026-05-06 16:47 42.39672 -8.05868 28300 ft 439 kts 186°
2026-05-06 16:47 42.36640 -8.05986 27765 ft 434 kts 186°
2026-05-06 16:48 42.33655 -8.06102 27251 ft 429 kts 187°
2026-05-06 16:48 42.30683 -8.06217 26717 ft 424 kts 187°
2026-05-06 16:48 42.27742 -8.06335 25832 ft 429 kts 187°
2026-05-06 16:48 42.24738 -8.06459 24931 ft 435 kts 186°
2026-05-06 16:49 42.21664 -8.06579 24311 ft 433 kts 186°
2026-05-06 16:49 42.18677 -8.06693 23745 ft 430 kts 186°
2026-05-06 16:49 42.15696 -8.06806 23117 ft 427 kts 186°
2026-05-06 16:49 42.12745 -8.06920 22550 ft 421 kts 186°
2026-05-06 16:50 42.10014 -8.07028 22046 ft 417 kts 186°
2026-05-06 16:50 42.07026 -8.07146 21424 ft 412 kts 186°
2026-05-06 16:50 42.04176 -8.07259 20872 ft 408 kts 186°
2026-05-06 16:50 42.01341 -8.07371 20270 ft 405 kts 185°
2026-05-06 16:51 41.98639 -8.07477 19721 ft 401 kts 185°
2026-05-06 16:51 41.95858 -8.07584 19182 ft 397 kts 185°
2026-05-06 16:51 41.93110 -8.07689 18562 ft 393 kts 185°
2026-05-06 16:51 41.90363 -8.07798 17227 ft 400 kts 184°
2026-05-06 16:52 41.87546 -8.07912 15721 ft 408 kts 184°
2026-05-06 16:52 41.84676 -8.08041 14159 ft 416 kts 186°
2026-05-06 16:52 41.81835 -8.08656 12855 ft 413 kts 197°
2026-05-06 16:52 41.79166 -8.09959 11729 ft 402 kts 208°
2026-05-06 16:53 41.76722 -8.11737 10535 ft 397 kts 212°
2026-05-06 16:53 41.74351 -8.13514 9919 ft 381 kts 211°
2026-05-06 16:53 41.72110 -8.15183 9634 ft 357 kts 211°
2026-05-06 16:53 41.69956 -8.16629 9386 ft 337 kts 204°
2026-05-06 16:54 41.67805 -8.17639 9163 ft 318 kts 201°
2026-05-06 16:54 41.65847 -8.18520 8990 ft 300 kts 201°
2026-05-06 16:54 41.63857 -8.19428 8573 ft 291 kts 201°
2026-05-06 16:54 41.61949 -8.20305 8039 ft 289 kts 201°
2026-05-06 16:55 41.60082 -8.21161 7836 ft 276 kts 202°
2026-05-06 16:55 41.58300 -8.21973 7718 ft 262 kts 202°
2026-05-06 16:55 41.56620 -8.22740 7558 ft 254 kts 202°
2026-05-06 16:55 41.54953 -8.23504 7257 ft 252 kts 202°
2026-05-06 16:56 41.53375 -8.24225 6957 ft 251 kts 202°
2026-05-06 16:56 41.51857 -8.24919 6709 ft 250 kts 202°
2026-05-06 16:56 41.50457 -8.25559 6457 ft 249 kts 202°
2026-05-06 16:56 41.48888 -8.26275 6143 ft 248 kts 202°
2026-05-06 16:57 41.47266 -8.27012 5801 ft 245 kts 202°
2026-05-06 16:57 41.45689 -8.27729 5698 ft 232 kts 202°
2026-05-06 16:57 41.44189 -8.28409 5488 ft 226 kts 202°
2026-05-06 16:57 41.42695 -8.29091 5175 ft 226 kts 202°
2026-05-06 16:58 41.41221 -8.29764 4893 ft 224 kts 202°
2026-05-06 16:58 41.39743 -8.30434 4554 ft 224 kts 202°
2026-05-06 16:58 41.38273 -8.31104 4270 ft 223 kts 202°
2026-05-06 16:58 41.36808 -8.31766 4030 ft 221 kts 202°
2026-05-06 16:59 41.35387 -8.32412 3977 ft 215 kts 202°
2026-05-06 16:59 41.34981 -8.32597 3996 ft 220 kts 202°
2026-05-06 16:59 41.33576 -8.33234 3961 ft 209 kts 202°
2026-05-06 17:00 41.32275 -8.33817 3974 ft 188 kts 203°
2026-05-06 17:00 41.31007 -8.34390 3996 ft 197 kts 202°
2026-05-06 17:00 41.29742 -8.34966 3971 ft 192 kts 202°
2026-05-06 17:00 41.28454 -8.35554 3971 ft 194 kts 203°
2026-05-06 17:01 41.27175 -8.36143 3987 ft 194 kts 202°
2026-05-06 17:01 41.25890 -8.36715 3962 ft 194 kts 202°
2026-05-06 17:01 41.24626 -8.37275 3994 ft 191 kts 203°
2026-05-06 17:01 41.23359 -8.37848 3983 ft 194 kts 203°
2026-05-06 17:02 41.22093 -8.38428 3990 ft 193 kts 203°
2026-05-06 17:02 41.20816 -8.39008 3987 ft 193 kts 203°
2026-05-06 17:02 41.19559 -8.39576 3985 ft 193 kts 203°
2026-05-06 17:02 41.18262 -8.40156 3984 ft 197 kts 203°
2026-05-06 17:03 41.17077 -8.40687 3994 ft 192 kts 203°
2026-05-06 17:03 41.15798 -8.41265 3991 ft 196 kts 203°
2026-05-06 17:03 41.14521 -8.41849 3958 ft 196 kts 204°
2026-05-06 17:03 41.13451 -8.42868 3841 ft 186 kts 241°
2026-05-06 17:04 41.12881 -8.44380 3703 ft 183 kts 251°
2026-05-06 17:04 41.12351 -8.45858 3650 ft 174 kts 250°
2026-05-06 17:04 41.11849 -8.47259 3446 ft 167 kts 250°
2026-05-06 17:04 41.11371 -8.48572 3395 ft 149 kts 251°
2026-05-06 17:05 41.10931 -8.49775 3144 ft 144 kts 250°
2026-05-06 17:05 41.10497 -8.50994 2784 ft 147 kts 251°
2026-05-06 17:05 41.10072 -8.52239 2411 ft 149 kts 252°
2026-05-06 17:05 41.09638 -8.53487 1999 ft 147 kts 250°
2026-05-06 17:06 41.09193 -8.54704 1651 ft 148 kts 249°
2026-05-06 17:06 41.08745 -8.55933 1269 ft 151 kts 249°
2026-05-06 17:06 41.08356 -8.56999 969 ft 148 kts 249°
2026-05-06 17:06 41.08011 -8.58143 970 ft 111 kts 271°
2026-05-06 17:07 41.08279 -8.59023 1200 ft 109 kts 321°
2026-05-06 17:07 41.08991 -8.59575 1434 ft 146 kts 330°
2026-05-06 17:07 41.09899 -8.60251 1530 ft 136 kts 330°
2026-05-06 17:07 41.10642 -8.60810 1531 ft 114 kts 330°
2026-05-06 17:08 41.11353 -8.61339 1460 ft 123 kts 329°
2026-05-06 17:08 41.12039 -8.61964 1569 ft 119 kts 323°
2026-05-06 17:08 41.12719 -8.62627 1568 ft 124 kts 326°
2026-05-06 17:08 41.13486 -8.63164 1557 ft 127 kts 335°
2026-05-06 17:09 41.14296 -8.63636 1603 ft 128 kts 336°
2026-05-06 17:09 41.15124 -8.64101 1660 ft 129 kts 336°
2026-05-06 17:09 41.15931 -8.64590 1683 ft 126 kts 333°
2026-05-06 17:09 41.16707 -8.65110 1550 ft 122 kts 333°
2026-05-06 17:10 41.17417 -8.65625 1526 ft 111 kts 330°
2026-05-06 17:10 41.18095 -8.66122 1383 ft 111 kts 332°
2026-05-06 17:10 41.18807 -8.66508 1295 ft 111 kts 344°
2026-05-06 17:10 41.19495 -8.66767 1190 ft 113 kts 346°
2026-05-06 17:11 41.20202 -8.66918 1114 ft 117 kts 350°
2026-05-06 17:11 41.21038 -8.67104 935 ft 125 kts 345°
2026-05-06 17:11 41.21904 -8.67358 667 ft 126 kts 345°
2026-05-06 17:11 41.22699 -8.67565 423 ft 121 kts 345°
2026-05-06 17:12 41.23506 -8.67785 249 ft 111 kts 346°
2026-05-06 17:12 41.24119 -8.67946 215 ft 55 kts 348°
2026-05-06 17:12 41.24458 -8.68034 208 ft 47 kts 348°
2026-05-06 17:12 41.24739 -8.68107 202 ft 26 kts 349°
2026-05-06 17:13 41.24926 -8.68159 196 ft 29 kts 351°
2026-05-06 17:13 41.25143 -8.68162 181 ft 32 kts 10°
2026-05-06 17:13 41.25204 -8.68140 179 ft 3 kts 17°
2026-05-06 17:13 41.25248 -8.68121 178 ft 10 kts 19°
2026-05-06 17:14 41.25293 -8.68092 176 ft 0 kts 46°
2026-05-06 17:14 41.25301 -8.68076 175 ft 0 kts 58°
2026-05-06 17:14 41.25300 -8.68046 175 ft 0 kts 100°
2026-05-06 17:14 41.25298 -8.68036 175 ft 0 kts 105°
2026-05-06 17:15 41.25292 -8.68027 176 ft 2 kts 137°
2026-05-06 17:15 41.25285 -8.68025 176 ft 2 kts 161°
2026-05-06 17:15 41.25210 -8.68002 181 ft 22 kts 169°
2026-05-06 17:16 41.25018 -8.67953 191 ft 30 kts 170°
2026-05-06 17:16 41.24824 -8.67864 208 ft 30 kts 154°
2026-05-06 17:16 41.24637 -8.67794 211 ft 26 kts 167°
2026-05-06 17:16 41.24458 -8.67748 218 ft 26 kts 168°
2026-05-06 17:17 41.24296 -8.67692 228 ft 22 kts 147°
2026-05-06 17:17 41.24247 -8.67613 233 ft 0 kts 118°
2026-05-06 17:17 41.24246 -8.67612 234 ft 2 kts 124°
2026-05-06 17:17 41.24234 -8.67597 235 ft 3 kts 143°
2026-05-06 17:18 41.24188 -8.67572 237 ft 21 kts 168°
2026-05-06 17:18 41.23943 -8.67507 237 ft 42 kts 169°
2026-05-06 17:18 41.23767 -8.67459 237 ft 8 kts 159°
2026-05-06 17:18 41.23709 -8.67377 237 ft 17 kts 131°
2026-05-06 17:19 41.23649 -8.67335 237 ft 1 kts 168°
2026-05-06 17:19 41.23629 -8.67318 237 ft 4 kts 124°
2026-05-06 17:19 41.23630 -8.67299 237 ft 3 kts 79°
2026-05-06 17:19 41.23638 -8.67249 237 ft 7 kts 79°
2026-05-06 17:20 41.23640 -8.67237 237 ft 0 kts 77°